[[{"header":{"parameterUnit":"m.s-1","parameterCategory":1,"la1":30.2991,"la2":30.254,"lo1":-89.0895,"lo2":-89.0444,"dy":0.0017,"dx":0.0017,"nx":28,"ny":28,"refTime":"2024-10-09T03:00:00:Z","depth":0,"parameterNumber":2,"parameterNumberName":"U-component_of_WINDS"},"data":[0,0,0,0,0,0,0,0,0,0,0,0,0,0,0,0,0,0,0,0,0,0,0,0,0,0,0,0,0,0,0,0,0,0,0,0,0,0,0,0,0,0,0,0,0,0,0,0,0,0,0,0,0,0,0,0,0,0,-1.3267,-1.3268,0,-1.3363,-1.3364,-1.3366,-1.3337,-1.3335,-1.3333,-1.3331,-1.3433,-1.3437,-1.3442,0,0,0,0,0,0,0,0,0,0,0,0,0,-1.3059,-1.3063,-1.3267,-1.3268,-1.3269,-1.3363,-1.3364,-1.3366,-1.3337,-1.3335,-1.3332,-1.333,-1.3431,-1.3437,-1.3442,0,0,0,0,0,0,0,0,0,0,0,0,0,-1.3152,-1.3065,-1.3266,-1.3266,-1.3267,-1.3363,-1.3365,-1.3366,-1.3338,-1.3335,-1.3331,-1.3329,-1.3429,-1.3436,-1.3443,-1.3546,0,0,-1.3464,-1.3467,0,0,0,0,0,0,0,0,-1.3147,-1.316,-1.3265,-1.3266,-1.3267,-1.3335,-1.3329,-1.3427,-1.3338,-1.3311,-1.3331,-1.3327,-1.3403,-1.3412,-1.3436,-1.3551,-1.3555,-1.3464,-1.3469,-1.3472,-1.3474,0,0,0,0,0,0,0,-1.3141,-1.3156,-1.3305,-1.3266,-1.3268,-1.3262,-1.3271,-1.3347,-1.3373,-1.3313,-1.3311,-1.3323,-1.3403,-1.343,-1.3439,-1.3557,-1.3464,-1.347,-1.3475,-1.3477,-1.3761,-1.3764,0,0,0,0,0,0,-1.3133,-1.315,-1.3302,-1.3308,-1.3198,-1.3268,-1.3279,-1.3316,-1.3372,-1.3377,-1.3325,-1.3321,-1.342,-1.3431,-1.3442,-1.3568,-1.3472,-1.3478,-1.3482,-1.3758,-1.3762,-1.3766,0,0,0,0,0,0,-1.3129,-1.3147,-1.3298,-1.3229,-1.3247,-1.3275,-1.3317,-1.332,-1.3347,-1.3381,-1.3386,-1.3348,-1.3418,-1.3432,-1.352,-1.3571,-1.3481,-1.3487,-1.3754,-1.3759,-1.3764,-1.3819,0,0,0,0,0,0,-1.3123,-1.3145,-1.3184,-1.323,-1.3251,-1.3374,-1.332,-1.3324,-1.3358,-1.3354,-1.3404,-1.3409,-1.3416,-1.351,-1.3527,-1.3579,-1.3493,-1.3749,-1.3756,-1.3762,-1.3813,-1.3825,-1.3836,0,0,0,0,0,-1.3115,-1.3197,-1.3187,-1.3205,-1.33,-1.3377,-1.3389,-1.3395,-1.3363,-1.3403,-1.3424,-1.3408,-1.3562,-1.3519,-1.3538,-1.3593,-1.3746,-1.3754,-1.3762,-1.3807,-1.3823,-1.3836,0,0,0,0,0,0,-1.3158,-1.3203,-1.3192,-1.329,-1.333,-1.3372,-1.3423,-1.3411,-1.3462,-1.3456,-1.3462,-1.3473,-1.3564,-1.3586,-1.3539,-1.3696,-1.3649,-1.3661,-1.3678,-1.3693,-1.3704,-1.3698,-1.3499,0,0,0,0,0,-1.3178,-1.3236,-1.3272,-1.3355,-1.3375,-1.3396,-1.3429,-1.343,-1.3472,-1.3489,-1.3518,-1.356,-1.3618,-1.3656,-1.3711,-1.3815,-1.3826,-1.3861,-1.3873,-1.3882,-1.3893,-1.3951,-1.3967,-1.3791,-1.3791,-1.379,0,0,-1.3222,-1.3253,-1.3289,-1.3364,-1.3395,-1.3456,-1.341,-1.3476,-1.3521,-1.35,-1.3585,-1.3607,-1.3654,-1.375,-1.3794,-1.3772,-1.3944,-1.3892,-1.3899,-1.3905,-1.396,-1.3977,-1.3992,-1.3796,-1.3795,-1.3794,0,0,-1.3332,-1.3361,-1.3434,-1.3465,-1.3513,-1.3525,-1.3543,-1.3587,-1.36,-1.3685,-1.367,-1.3724,-1.3824,-1.3858,-1.3889,-1.4011,-1.3998,-1.4029,-1.4091,-1.4147,-1.4161,-1.4173,-1.4218,-1.4234,-1.4039,-1.404,-1.404,0,-1.3381,-1.347,-1.3473,-1.354,-1.3574,-1.3555,-1.363,-1.3661,-1.3724,-1.3748,-1.3722,-1.3846,-1.3877,-1.3982,-1.4011,-1.4036,-1.4057,-1.4025,-1.4158,-1.4171,-1.4182,-1.4226,-1.4242,-1.4043,-1.4043,-1.4042,-1.4042,0,-1.3528,-1.3591,-1.3644,-1.3705,-1.3744,-1.3815,-1.3829,-1.3868,-1.3865,-1.3881,-1.3968,-1.4004,-1.4066,-1.409,-1.4089,-1.4195,-1.418,-1.4156,-1.411,-1.4203,-1.4244,-1.426,-1.4048,-1.4047,-1.4046,-1.4045,0,0,-1.367,-1.373,-1.375,-1.3778,-1.3828,-1.3876,-1.3946,-1.4006,-1.4041,-1.4084,-1.4144,-1.4228,-1.4206,-1.424,-1.4242,-1.4291,-1.4387,-1.4261,-1.4262,-1.4285,-1.4509,-1.4528,-1.4547,-1.4378,-1.4381,-1.4383,-1.4505,0,-1.3786,-1.3908,-1.3912,-1.4024,-1.4083,-1.4065,-1.4126,-1.4164,-1.418,-1.4232,-1.425,-1.431,-1.4275,-1.4296,-1.4344,-1.4366,-1.4433,-1.4357,-1.4435,-1.4438,-1.4426,-1.4568,-1.4589,-1.4703,-1.4521,-1.4524,-1.4526,0,-1.3939,-1.3987,-1.4104,-1.4146,-1.417,-1.4225,-1.4281,-1.433,-1.4373,-1.4381,-1.4419,-1.4414,-1.4486,-1.4435,-1.4536,-1.4484,-1.4516,-1.4531,-1.4536,-1.4545,-1.4489,-1.4584,-1.4739,-1.4757,-1.4551,-1.4549,-1.4547,0,-1.4033,-1.4126,-1.4209,-1.4233,-1.4283,-1.4322,-1.4345,-1.4384,-1.442,-1.4468,-1.4492,-1.4548,-1.458,-1.4624,-1.4634,-1.4596,-1.4734,-1.4685,-1.4745,-1.4745,-1.4777,-1.4775,-1.4941,-1.4794,-1.4793,-1.4793,-1.4793,0,-1.4163,-1.4237,-1.4252,-1.4303,-1.4384,-1.4388,-1.4469,-1.4489,-1.4524,-1.4579,-1.4567,-1.4619,-1.4628,-1.4682,-1.469,-1.4773,-1.4787,-1.4797,-1.4798,-1.4799,-1.4798,-1.4822,-1.4815,-1.4798,-1.4797,-1.4796,-1.4795,0,-1.4283,-1.4296,-1.4385,-1.4425,-1.4437,-1.4495,-1.453,-1.4579,-1.4593,-1.4663,-1.468,-1.4702,-1.4766,-1.4779,-1.4855,-1.486,-1.4959,-1.4952,-1.4945,-1.4945,-1.5005,-1.4999,-1.5194,-1.522,-1.5053,-1.5055,-1.5056,0,-1.4367,-1.4423,-1.4468,-1.4504,-1.4528,-1.4586,-1.4622,-1.4627,-1.4666,-1.4718,-1.4761,-1.4823,-1.4873,-1.4975,-1.4999,-1.5057,-1.5053,-1.5116,-1.5061,-1.506,-1.5056,-1.5053,-1.506,-1.5128,-1.513,-1.5131,-1.5132,0,-1.4515,-1.4518,-1.457,-1.4625,-1.4668,-1.4712,-1.4753,-1.4783,-1.4794,-1.4838,-1.4902,-1.4941,-1.5017,-1.508,-1.5137,-1.5161,-1.515,-1.5149,-1.5166,-1.5169,-1.5163,-1.5169,-1.4976,-1.5145,-1.5144,-1.5143,-1.5142,-1.5142,-1.462,-1.4669,-1.4709,-1.4768,-1.4799,-1.4838,-1.4886,-1.4905,-1.4959,-1.5021,-1.5021,-1.5092,-1.5132,-1.5208,-1.5236,-1.5292,-1.5272,-1.5297,-1.5304,-1.531,-1.5317,-1.5152,-1.5302,-1.5302,-1.5302,-1.5301,-1.5301,0,-1.4769,-1.4793,-1.4847,-1.4905,-1.4951,-1.4934,-1.4978,-1.5019,-1.5081,-1.5119,-1.5168,-1.5243,-1.5303,-1.533,-1.539,-1.5429,-1.5425,-1.5445,-1.5443,-1.5449,-1.533,-1.531,-1.5447,-1.5447,-1.5447,-1.5447,-1.5447,-1.5447,-1.4852,-1.4934,-1.4942,-1.504,-1.5064,-1.5132,-1.5159,-1.5195,-1.5226,-1.5309,-1.5359,-1.5376,-1.5411,-1.5472,-1.5527,-1.5533,-1.5557,-1.5579,-1.5584,-1.5472,-1.5458,-1.5444,-1.5425,-1.5584,-1.5584,-1.5699,-1.57,-1.57]},{"header":{"parameterUnit":"m.s-1","parameterCategory":1,"la1":30.2991,"la2":30.254,"lo1":-89.0895,"lo2":-89.0444,"dy":0.0017,"dx":0.0017,"nx":28,"ny":28,"refTime":"2024-10-09T03:00:00:Z","depth":0,"parameterNumber":3,"parameterNumberName":"V-component_of_WINDS"},"data":[0,0,0,0,0,0,0,0,0,0,0,0,0,0,0,0,0,0,0,0,0,0,0,0,0,0,0,0,0,0,0,0,0,0,0,0,0,0,0,0,0,0,0,0,0,0,0,0,0,0,0,0,0,0,0,0,0,0,-5.79,-5.7901,0,-5.7965,-5.7966,-5.7966,-5.7879,-5.7876,-5.7873,-5.787,-5.793,-5.7935,-5.7939,0,0,0,0,0,0,0,0,0,0,0,0,0,-5.7696,-5.77,-5.79,-5.7901,-5.7902,-5.7965,-5.7966,-5.7966,-5.7879,-5.7875,-5.7872,-5.7868,-5.7929,-5.7934,-5.794,0,0,0,0,0,0,0,0,0,0,0,0,0,-5.7775,-5.7702,-5.79,-5.7866,-5.7864,-5.7965,-5.7966,-5.7967,-5.788,-5.7875,-5.7871,-5.7866,-5.7927,-5.7934,-5.794,-5.8076,0,0,-5.7961,-5.7964,0,0,0,0,0,0,0,0,-5.7771,-5.7782,-5.787,-5.7869,-5.7866,-5.7909,-5.7916,-5.8003,-5.7881,-5.7874,-5.7869,-5.7864,-5.7927,-5.7933,-5.7955,-5.8079,-5.8082,-5.7962,-5.7966,-5.7969,-5.7971,0,0,0,0,0,0,0,-5.7765,-5.7779,-5.7926,-5.7872,-5.7869,-5.7846,-5.7852,-5.7932,-5.7925,-5.7874,-5.7868,-5.7877,-5.7925,-5.7949,-5.7956,-5.8082,-5.7962,-5.7968,-5.7972,-5.7974,-5.8319,-5.8324,0,0,0,0,0,0,-5.7765,-5.7775,-5.7924,-5.7928,-5.7806,-5.7853,-5.786,-5.79,-5.7924,-5.7924,-5.7881,-5.7873,-5.794,-5.7948,-5.7958,-5.8118,-5.7969,-5.7975,-5.7979,-5.8314,-5.832,-5.8326,0,0,0,0,0,0,-5.776,-5.7779,-5.7921,-5.785,-5.7866,-5.7862,-5.7907,-5.7904,-5.7928,-5.793,-5.7928,-5.7908,-5.7936,-5.7948,-5.8047,-5.8119,-5.7978,-5.7984,-5.8308,-5.8316,-5.8323,-5.8439,0,0,0,0,0,0,-5.7755,-5.7778,-5.7831,-5.7852,-5.787,-5.8012,-5.7912,-5.7908,-5.7941,-5.7931,-5.7954,-5.7953,-5.7934,-5.8038,-5.8054,-5.8126,-5.799,-5.8302,-5.8311,-5.832,-5.8429,-5.845,-5.8468,0,0,0,0,0,-5.7748,-5.786,-5.7834,-5.7852,-5.7937,-5.8016,-5.8026,-5.8003,-5.7947,-5.7999,-5.8,-5.7953,-5.8109,-5.8049,-5.8066,-5.8141,-5.8297,-5.8309,-5.832,-5.842,-5.8446,-5.8467,0,0,0,0,0,0,-5.7845,-5.7862,-5.7833,-5.7956,-5.7985,-5.8001,-5.8066,-5.8031,-5.8075,-5.8064,-5.8031,-5.8037,-5.8143,-5.8151,-5.8085,-5.8273,-5.8193,-5.8209,-5.8264,-5.8288,-5.8307,-5.8302,-5.7995,0,0,0,0,0,-5.7882,-5.7946,-5.7956,-5.8063,-5.808,-5.8071,-5.8104,-5.8084,-5.8112,-5.8124,-5.8132,-5.816,-5.8215,-5.8252,-5.8302,-5.843,-5.8433,-5.849,-5.8509,-5.8525,-5.8539,-5.8606,-5.8631,-5.8363,-5.8363,-5.8363,0,0,-5.7956,-5.7973,-5.8016,-5.8083,-5.8104,-5.817,-5.8082,-5.8155,-5.8203,-5.8134,-5.8229,-5.8236,-5.8264,-5.8378,-5.8429,-5.8389,-5.8613,-5.8539,-5.8552,-5.8557,-5.862,-5.8645,-5.8668,-5.8371,-5.8369,-5.8368,0,0,-5.8125,-5.8146,-5.8237,-5.8259,-5.8292,-5.8285,-5.8307,-5.8329,-5.8331,-5.8426,-5.8375,-5.843,-5.8526,-5.8549,-5.8573,-5.8751,-5.8709,-5.8768,-5.8869,-5.8935,-5.8956,-5.8975,-5.9038,-5.9061,-5.8782,-5.8782,-5.8782,0,-5.8213,-5.8313,-5.8287,-5.8365,-5.8396,-5.8338,-5.8429,-5.8451,-5.8498,-5.852,-5.8475,-5.8594,-5.8609,-5.8727,-5.8771,-5.8792,-5.8815,-5.8765,-5.8956,-5.8974,-5.8991,-5.905,-5.9074,-5.8789,-5.8788,-5.8788,-5.8787,0,-5.8419,-5.8489,-5.8558,-5.8607,-5.8645,-5.8729,-5.8714,-5.8756,-5.8732,-5.8729,-5.8826,-5.8842,-5.8895,-5.8921,-5.8898,-5.9036,-5.901,-5.8961,-5.888,-5.9024,-5.9079,-5.9102,-5.8799,-5.8797,-5.8794,-5.8793,0,0,-5.8652,-5.8686,-5.8712,-5.8733,-5.8765,-5.8817,-5.8897,-5.8951,-5.8987,-5.9021,-5.9086,-5.9169,-5.9124,-5.9151,-5.9129,-5.9187,-5.9326,-5.9131,-5.9131,-5.9166,-5.9478,-5.9515,-5.9542,-5.9299,-5.9303,-5.9306,-5.9476,0,-5.8821,-5.8963,-5.8942,-5.9077,-5.914,-5.9086,-5.9156,-5.9182,-5.9181,-5.9233,-5.9231,-5.9291,-5.9227,-5.9243,-5.9298,-5.9298,-5.9388,-5.9285,-5.9358,-5.9361,-5.9353,-5.9571,-5.961,-5.9769,-5.9497,-5.9501,-5.9503,0,-5.9038,-5.9082,-5.9224,-5.9246,-5.9271,-5.9335,-5.9382,-5.9433,-5.946,-5.9456,-5.9487,-5.9454,-5.9533,-5.9451,-5.9558,-5.9488,-5.9516,-5.9521,-5.9526,-5.9532,-5.9441,-5.9582,-5.9819,-5.9843,-5.9537,-5.9535,-5.9532,0,-5.9193,-5.9287,-5.9385,-5.9404,-5.9432,-5.9478,-5.9491,-5.9514,-5.9548,-5.9588,-5.9609,-5.9657,-5.9684,-5.9721,-5.9702,-5.9644,-5.9812,-5.9729,-5.9809,-5.981,-5.9846,-5.9844,-6.0092,-5.9866,-5.9865,-5.9865,-5.9864,0,-5.9384,-5.9473,-5.9455,-5.9515,-5.9612,-5.9587,-5.9683,-5.9689,-5.9711,-5.9769,-5.9724,-5.978,-5.9752,-5.9805,-5.979,-5.988,-5.9892,-5.989,-5.9885,-5.9894,-5.9894,-5.9912,-5.99,-5.9871,-5.987,-5.9868,-5.9867,0,-5.9574,-5.9565,-5.9668,-5.9686,-5.9693,-5.9764,-5.9778,-5.9833,-5.9829,-5.9904,-5.992,-5.9913,-5.9973,-5.9958,-6.0023,-6.0013,-6.0127,-6.0108,-6.0118,-6.0114,-6.0195,-6.0187,-6.0461,-6.0496,-6.0248,-6.0251,-6.0253,0,-5.9696,-5.9764,-5.979,-5.9827,-5.9844,-5.9904,-5.9938,-5.9915,-5.9952,-5.9988,-6.0039,-6.0095,-6.0139,-6.0237,-6.0237,-6.0286,-6.0268,-6.036,-6.0275,-6.0282,-6.0269,-6.0265,-6.0271,-6.0377,-6.038,-6.0383,-6.0384,0,-5.9914,-5.9907,-5.9959,-6.001,-6.0052,-6.0091,-6.0124,-6.0157,-6.0136,-6.0179,-6.0241,-6.0275,-6.0342,-6.0398,-6.0443,-6.0454,-6.0416,-6.0412,-6.0433,-6.0442,-6.0446,-6.0445,-6.0165,-6.0405,-6.0403,-6.0402,-6.0401,-6.04,-6.0074,-6.0131,-6.0159,-6.0218,-6.0241,-6.0274,-6.0327,-6.033,-6.0382,-6.0436,-6.0418,-6.0488,-6.0513,-6.057,-6.0587,-6.064,-6.0605,-6.0635,-6.0643,-6.0651,-6.0661,-6.0438,-6.0648,-6.0647,-6.0647,-6.0646,-6.0646,0,-6.0289,-6.0304,-6.0359,-6.0409,-6.0455,-6.0417,-6.0452,-6.0492,-6.0556,-6.0583,-6.0627,-6.0698,-6.0752,-6.0756,-6.0806,-6.0848,-6.0832,-6.0862,-6.0859,-6.0862,-6.069,-6.0667,-6.0875,-6.0875,-6.0875,-6.0875,-6.0875,-6.0875,-6.0407,-6.0502,-6.0498,-6.0603,-6.0617,-6.0687,-6.071,-6.074,-6.0761,-6.0843,-6.0888,-6.0891,-6.0908,-6.096,-6.1007,-6.1006,-6.1027,-6.1064,-6.1057,-6.0897,-6.0874,-6.0852,-6.083,-6.1069,-6.1069,-6.1224,-6.1226,-6.1227]}]]